Date,TemperatureHighF,TemperatureAvgF,TemperatureLowF,DewpointHighF,DewpointAvgF,DewpointLowF,HumidityHigh,HumidityAvg,HumidityLow,PressureMaxIn,PressureMinIn,WindSpeedMaxMPH,WindSpeedAvgMPH,GustSpeedMaxMPH,PrecipitationSumIn
2013-2-1,38.3,29.8,20.3,30.1,16.7,7.8,89,60,31,30.36,30.04,3,1,11,0.00
2013-2-2,35.4,26.8,17.9,31.4,20.7,7.9,100,79,41,30.36,30.12,3,0,7,0.04
2013-2-3,47.6,35.2,28.8,40.0,30.4,24.8,97,84,54,30.13,29.97,2,0,4,0.36
2013-2-4,46.9,34.6,25.0,31.6,24.9,21.2,92,70,42,30.14,30.00,7,0,9,0.00
2013-2-5,61.5,43.6,36.0,45.2,35.6,23.8,93,75,47,30.02,29.92,2,0,6,0.00
2013-2-6,65.3,46.4,31.7,39.9,32.8,26.2,98,66,27,30.17,30.01,2,0,5,0.01
2013-2-7,50.9,46.2,39.8,43.8,37.4,27.2,94,73,51,30.13,29.90,11,3,17,0.09
2013-2-8,56.3,42.9,30.1,47.7,40.1,28.0,98,91,58,30.14,29.86,1,0,3,0.04
2013-2-9,60.7,41.2,25.7,32.9,26.4,22.2,100,63,24,30.29,30.10,5,1,10,0.01
2013-2-10,50.5,46.5,43.1,47.8,33.0,22.2,97,62,35,30.27,30.05,14,7,22,0.61
2013-2-11,53.2,49.0,41.2,52.7,47.1,37.3,98,93,78,30.08,29.98,12,2,15,0.28
2013-2-12,49.9,41.9,35.0,41.8,36.6,31.0,100,82,52,30.08,29.83,10,0,12,0.11
2013-2-13,47.5,40.8,31.6,42.8,37.9,29.5,95,89,80,29.92,29.67,10,3,20,0.04
2013-2-14,57.1,40.1,31.4,37.5,31.2,25.4,93,73,40,30.05,29.91,3,0,5,0.00
2013-2-15,61.9,43.0,30.7,40.8,33.7,28.2,100,74,35,30.09,29.94,3,0,4,0.09
2013-2-16,37.7,29.5,21.5,31.8,23.0,13.2,100,78,46,30.08,29.90,3,1,5,0.01
2013-2-17,42.2,28.1,18.2,18.2,12.7,8.7,70,54,33,30.28,30.08,3,1,7,0.00
2013-2-18,51.9,38.1,23.4,27.7,21.5,12.4,77,53,35,30.35,30.11,14,4,19,0.00
2013-2-19,56.1,41.1,32.6,45.8,29.6,16.0,97,67,39,30.13,29.92,14,3,18,0.26
2013-2-20,50.5,34.3,23.8,20.8,14.4,8.5,72,46,21,30.17,30.08,2,0,5,0.00
2013-2-21,63.2,41.3,25.0,38.7,22.1,10.9,93,52,15,30.18,29.98,9,2,14,0.54
2013-2-22,47.3,42.8,39.4,44.9,39.8,36.0,96,89,83,30.14,29.97,13,5,19,0.36
2013-2-23,55.0,47.8,43.4,52.3,46.6,42.0,100,95,88,30.00,29.78,3,0,4,0.42
2013-2-24,64.2,45.4,32.3,43.1,33.7,25.3,100,69,28,29.99,29.85,3,0,5,0.00
2013-2-25,51.5,42.2,32.2,39.7,30.5,24.8,94,65,46,30.00,29.80,12,5,17,0.01
2013-2-26,44.6,42.4,36.1,42.6,39.8,33.7,95,91,80,29.80,29.51,15,5,24,0.93
2013-2-27,56.6,41.1,33.9,39.9,34.3,30.8,95,79,44,29.83,29.69,3,0,10,0.03
2013-2-28,37.6,32.5,29.8,33.2,26.8,24.0,86,79,74,29.96,29.77,2,0,4,0.00